When you browse on this site, cookies collect data to enhance your experience and personalize the content and advertising you see.
Visit our Privacy Policy to learn more. By continuing to use the site, you agree to this use of cookies and data.
  • Em Portugal
  • Lista de países
  • Para 7 dias
  • Temperatura da água
  • Mapa do tempo
  • Widgets de tempo
  • user-avatar
    Iniciar Sessão

    Previsão horária em Ksiki

    Hoje, 29 Janeiro, Quarta-feira

    Tempo Temperatura Precipitação Vento Pressão Humidade
    00:00 0°C° 0 mm 3 m/s 714 mmHg 89%
    01:00 -1°C° 0 mm 4 m/s 714 mmHg 90%
    02:00 -1°C° 0.1 mm 4 m/s 714 mmHg 89%
    03:00 -1°C° 0.1 mm 4 m/s 714 mmHg 88%
    04:00 -1°C° 0.1 mm 4 m/s 714 mmHg 86%
    05:00 -2°C° 0 mm 4 m/s 715 mmHg 86%
    06:00 -2°C° 0 mm 4 m/s 715 mmHg 86%
    07:00 -2°C° 0 mm 3 m/s 716 mmHg 86%
    08:00 -2°C° 0 mm 4 m/s 716 mmHg 81%
    09:00 -2°C° 0 mm 5 m/s 716 mmHg 77%
    10:00 -1°C° 0 mm 5 m/s 716 mmHg 73%
    11:00 -1°C° 0 mm 6 m/s 717 mmHg 70%
    12:00 -1°C° 0 mm 6 m/s 717 mmHg 68%
    13:00 0°C° 0 mm 7 m/s 717 mmHg 64%
    14:00 -1°C° 0 mm 6 m/s 717 mmHg 69%
    15:00 0°C° 0 mm 5 m/s 717 mmHg 74%
    16:00 -1°C° 0 mm 4 m/s 717 mmHg 80%
    17:00 -1°C° 0 mm 4 m/s 717 mmHg 82%
    18:00 -2°C° 0 mm 4 m/s 718 mmHg 83%
    19:00 -2°C° 0 mm 4 m/s 719 mmHg 85%
    20:00 -2°C° 0.1 mm 4 m/s 719 mmHg 87%
    21:00 -2°C° 0.1 mm 4 m/s 719 mmHg 88%
    22:00 -2°C° 0.1 mm 4 m/s 719 mmHg 89%
    23:00 -2°C° 0 mm 4 m/s 720 mmHg 90%

    Amanhã, 30 Janeiro, Quinta-feira

    Tempo Temperatura Precipitação Vento Pressão Humidade
    00:00 -1°C° 0 mm 3 m/s 720 mmHg 90%
    01:00 -1°C° 0 mm 3 m/s 721 mmHg 90%
    02:00 -1°C° 0.1 mm 3 m/s 721 mmHg 90%
    03:00 -1°C° 0.1 mm 3 m/s 721 mmHg 91%
    04:00 -2°C° 0.1 mm 4 m/s 721 mmHg 92%
    05:00 -2°C° 0.1 mm 4 m/s 722 mmHg 92%
    06:00 -2°C° 0.1 mm 4 m/s 722 mmHg 92%
    07:00 -2°C° 0.1 mm 4 m/s 723 mmHg 92%
    08:00 -2°C° 0 mm 4 m/s 723 mmHg 87%
    09:00 -1°C° 0 mm 4 m/s 723 mmHg 82%
    10:00 0°C° 0 mm 4 m/s 723 mmHg 77%
    11:00 0°C° 0 mm 4 m/s 723 mmHg 74%
    12:00 +1°C° 0 mm 4 m/s 723 mmHg 71%
    13:00 +1°C° 0 mm 4 m/s 723 mmHg 68%
    14:00 +1°C° 0 mm 4 m/s 723 mmHg 72%
    15:00 +1°C° 0 mm 3 m/s 722 mmHg 76%
    16:00 +1°C° 0 mm 3 m/s 722 mmHg 80%
    17:00 +1°C° 0 mm 3 m/s 722 mmHg 83%
    18:00 +1°C° 0 mm 3 m/s 722 mmHg 85%
    19:00 0°C° 0 mm 3 m/s 722 mmHg 88%
    20:00 0°C° 0 mm 3 m/s 722 mmHg 88%
    21:00 0°C° 0 mm 3 m/s 721 mmHg 89%
    22:00 +1°C° 0 mm 2 m/s 721 mmHg 90%
    23:00 +1°C° 0 mm 2 m/s 721 mmHg 89%

    Depois de amanhã, 31 Janeiro, Sexta-feira

    Tempo Temperatura Precipitação Vento Pressão Humidade
    00:00 +1°C° 0 mm 2 m/s 720 mmHg 88%
    01:00 +1°C° 0 mm 2 m/s 720 mmHg 87%
    02:00 0°C° 0 mm 3 m/s 720 mmHg 84%
    03:00 +1°C° 0 mm 3 m/s 719 mmHg 81%
    04:00 +1°C° 0 mm 3 m/s 718 mmHg 79%
    05:00 +1°C° 0.4 mm 4 m/s 718 mmHg 82%
    06:00 +1°C° 0.4 mm 4 m/s 717 mmHg 85%
    07:00 +3°C° 0.4 mm 4 m/s 717 mmHg 88%
    08:00 +3°C° 0.4 mm 5 m/s 717 mmHg 89%
    09:00 +5°C° 0.4 mm 5 m/s 717 mmHg 89%
    10:00 +5°C° 0.4 mm 5 m/s 716 mmHg 90%
    11:00 +6°C° 0.5 mm 5 m/s 717 mmHg 89%
    12:00 +6°C° 0.5 mm 5 m/s 717 mmHg 89%
    13:00 +6°C° 0.5 mm 5 m/s 717 mmHg 88%
    14:00 +6°C° 0.1 mm 5 m/s 718 mmHg 88%
    15:00 +6°C° 0.1 mm 5 m/s 718 mmHg 88%
    16:00 +6°C° 0.1 mm 4 m/s 719 mmHg 88%
    17:00 +5°C° 0.1 mm 4 m/s 719 mmHg 88%
    18:00 +5°C° 0.1 mm 4 m/s 720 mmHg 88%
    19:00 +4°C° 0.1 mm 3 m/s 721 mmHg 88%
    20:00 +4°C° 0 mm 3 m/s 721 mmHg 88%
    21:00 +4°C° 0 mm 3 m/s 722 mmHg 89%
    22:00 +4°C° 0 mm 3 m/s 722 mmHg 89%
    23:00 +4°C° 0 mm 3 m/s 722 mmHg 89%

    1 Fevereiro, Sábado

    Tempo Temperatura Precipitação Vento Pressão Humidade
    00:00 +4°C° 0 mm 3 m/s 722 mmHg 89%
    01:00 +3°C° 0 mm 3 m/s 722 mmHg 89%
    02:00 +3°C° 0 mm 3 m/s 722 mmHg 90%
    03:00 +3°C° 0 mm 3 m/s 722 mmHg 91%
    04:00 +3°C° 0 mm 3 m/s 722 mmHg 91%
    05:00 +3°C° 0 mm 3 m/s 722 mmHg 90%
    06:00 +3°C° 0 mm 3 m/s 722 mmHg 90%
    07:00 +3°C° 0 mm 3 m/s 722 mmHg 89%
    08:00 +4°C° 0 mm 3 m/s 722 mmHg 87%
    09:00 +5°C° 0 mm 3 m/s 722 mmHg 85%
    10:00 +7°C° 0 mm 3 m/s 722 mmHg 82%
    11:00 +7°C° 0 mm 4 m/s 721 mmHg 81%
    12:00 +8°C° 0 mm 4 m/s 721 mmHg 79%
    13:00 +8°C° 0 mm 5 m/s 721 mmHg 78%
    14:00 +8°C° 0 mm 4 m/s 720 mmHg 80%
    15:00 +8°C° 0 mm 3 m/s 720 mmHg 83%
    16:00 +7°C° 0 mm 3 m/s 720 mmHg 86%
    17:00 +7°C° 0 mm 3 m/s 719 mmHg 85%
    18:00 +7°C° 0 mm 3 m/s 719 mmHg 85%
    19:00 +7°C° 0 mm 3 m/s 719 mmHg 84%
    20:00 +6°C° 0.3 mm 4 m/s 718 mmHg 85%
    21:00 +6°C° 0.3 mm 4 m/s 718 mmHg 86%
    22:00 +6°C° 0.3 mm 4 m/s 717 mmHg 87%
    23:00 +6°C° 0.4 mm 5 m/s 717 mmHg 86%

    2 Fevereiro, Domingo

    Tempo Temperatura Precipitação Vento Pressão Humidade
    00:00 +6°C° 0.4 mm 5 m/s 716 mmHg 86%
    01:00 +6°C° 0.4 mm 5 m/s 716 mmHg 85%
    02:00 +5°C° 0.5 mm 7 m/s 716 mmHg 86%
    03:00 +4°C° 0.5 mm 8 m/s 716 mmHg 86%
    04:00 +2°C° 0.5 mm 9 m/s 716 mmHg 87%
    05:00 +2°C° 0.3 mm 8 m/s 717 mmHg 85%
    06:00 +2°C° 0.3 mm 7 m/s 718 mmHg 83%
    07:00 +1°C° 0.3 mm 6 m/s 719 mmHg 82%
    08:00 0°C° 0.1 mm 7 m/s 719 mmHg 81%
    09:00 0°C° 0.1 mm 7 m/s 720 mmHg 81%
    10:00 0°C° 0.1 mm 7 m/s 721 mmHg 81%
    11:00 +2°C° 0.1 mm 7 m/s 721 mmHg 81%
    12:00 +2°C° 0.1 mm 7 m/s 721 mmHg 82%
    13:00 +2°C° 0.1 mm 7 m/s 721 mmHg 83%
    14:00 +2°C° 0 mm 6 m/s 721 mmHg 83%
    15:00 +1°C° 0 mm 6 m/s 721 mmHg 83%
    16:00 +1°C° 0 mm 6 m/s 721 mmHg 83%
    17:00 +1°C° 0 mm 5 m/s 721 mmHg 83%
    18:00 +1°C° 0 mm 5 m/s 722 mmHg 83%
    19:00 +1°C° 0 mm 4 m/s 722 mmHg 83%
    20:00 0°C° 0 mm 4 m/s 722 mmHg 84%
    21:00 +1°C° 0 mm 3 m/s 722 mmHg 84%
    22:00 +1°C° 0 mm 3 m/s 721 mmHg 84%
    23:00 +1°C° 0.1 mm 3 m/s 721 mmHg 86%

    3 Fevereiro, Segunda-feira

    Tempo Temperatura Precipitação Vento Pressão Humidade
    00:00 +1°C° 0.1 mm 3 m/s 721 mmHg 88%
    01:00 +1°C° 0.1 mm 3 m/s 721 mmHg 91%
    02:00 +3°C° 0.2 mm 2 m/s 721 mmHg 92%
    03:00 +3°C° 0.2 mm 2 m/s 720 mmHg 93%
    04:00 +4°C° 0.2 mm 2 m/s 720 mmHg 94%
    05:00 +4°C° 0.1 mm 2 m/s 720 mmHg 94%
    06:00 +4°C° 0.1 mm 2 m/s 721 mmHg 95%
    07:00 +3°C° 0.1 mm 3 m/s 721 mmHg 95%
    08:00 +3°C° 0.2 mm 3 m/s 721 mmHg 95%
    09:00 +3°C° 0.2 mm 3 m/s 722 mmHg 94%
    10:00 +3°C° 0.2 mm 3 m/s 722 mmHg 93%
    11:00 +3°C° 0.4 mm 3 m/s 722 mmHg 94%
    12:00 +4°C° 0.4 mm 2 m/s 722 mmHg 94%
    13:00 +4°C° 0.4 mm 2 m/s 723 mmHg 95%
    14:00 +3°C° 0.3 mm 3 m/s 723 mmHg 94%
    15:00 +3°C° 0.3 mm 3 m/s 723 mmHg 94%
    16:00 +3°C° 0.3 mm 3 m/s 723 mmHg 93%
    17:00 +3°C° 0.1 mm 3 m/s 723 mmHg 93%
    18:00 +4°C° 0.1 mm 2 m/s 724 mmHg 93%
    19:00 +4°C° 0.1 mm 2 m/s 724 mmHg 93%
    20:00 +3°C° 0 mm 2 m/s 723 mmHg 92%
    21:00 +3°C° 0 mm 2 m/s 723 mmHg 92%
    22:00 +3°C° 0 mm 2 m/s 723 mmHg 91%
    23:00 +3°C° 0.1 mm 2 m/s 722 mmHg 90%
    Mostrar mais